This demonstration page uses our WeatherBlox Daily Observations layout. Learn more.

Left ArrowRight Arrow

Hourly Observations for March 27, 2020

Temp ( °F °C ) Dew Point ( °F °C ) Humidity (%) Winds ( mph kmh ) Pressure ( in mb ) Visibility ( mi km ) Precip ( " mm )
12:53 am 00:53 Clear 42 5.6 31 -0.6 65 65 N 5 7 30.02 1017 10 16 0.00 0.00
1:53 am 01:53 Clear 38 3.3 31 -0.6 76 76 Calm 30.02 1017 10 16 0.00 0.00
2:53 am 02:53 Clear 36 2.2 31 -0.6 82 82 Calm 30.03 1017 10 16 0.00 0.00
3:53 am 03:53 Clear 35 1.7 31 -0.6 85 85 Calm 30.02 1017 10 16 0.00 0.00
4:53 am 04:53 Clear 35 1.7 31 -0.6 85 85 NNE 5 7 30.02 1017 10 16 0.00 0.00
5:53 am 05:53 Clear 34 1.1 31 -0.6 89 89 Calm 30.04 1017 10 16 0.00 0.00
6:53 am 06:53 Clear 33 0.6 30 -1.1 89 89 Calm 30.05 1018 10 16 0.00 0.00
7:53 am 07:53 Sunny 35 1.7 32 0 89 89 Calm 30.07 1018 10 16 0.00 0.00
8:53 am 08:53 Partly Cloudy 41 5 34 1.1 76 76 NNE 3 6 30.08 1019 10 16 0.00 0.00
9:53 am 09:53 Cloudy 47 8.3 34 1.1 61 61 Calm 30.09 1019 10 16 0.00 0.00
10:53 am 10:53 Mostly Cloudy 50 10 34 1.1 54 54 ENE 5 7 30.10 1019 10 16 0.00 0.00
11:53 am 11:53 Cloudy 54 12.2 34 1.1 47 47 Calm 30.10 1019 10 16 0.00 0.00
12:53 pm 12:53 Cloudy 56 13.3 35 1.7 46 46 NE 3 6 30.09 1019 10 16 0.00 0.00
1:53 pm 13:53 Cloudy 58 14.4 34 1.1 41 41 S 6 9 30.09 1019 10 16 0.00 0.00
2:53 pm 14:53 Mostly Cloudy 59 15 36 2.2 42 42 S 12 19 30.07 1018 10 16 0.00 0.00
3:53 pm 15:53 Mostly Cloudy 58 14.4 38 3.3 48 48 SSE 13 20 30.07 1018 10 16 0.00 0.00
4:53 pm 16:53 Sunny 60 15.6 35 1.7 39 39 S 12 19 30.06 1018 10 16 0.00 0.00
5:53 pm 17:53 Sunny 59 15 35 1.7 41 41 SSE 12 19 30.07 1018 10 16 0.00 0.00
6:53 pm 18:53 Mostly Cloudy 57 13.9 36 2.2 45 45 S 9 15 30.08 1019 10 16 0.00 0.00
7:53 pm 19:53 Cloudy 54 12.2 38 3.3 55 55 SSE 5 7 30.09 1019 10 16 0.00 0.00
8:53 pm 20:53 Cloudy 54 12.2 39 3.9 57 57 SE 3 6 30.11 1020 10 16 0.00 0.00
9:53 pm 21:53 Cloudy 54 12.2 38 3.3 55 55 Calm 30.12 1020 10 16 0.00 0.00
10:53 pm 22:53 Cloudy 54 12.2 38 3.3 55 55 N 3 6 30.13 1020 10 16 0.00 0.00
11:53 pm 23:53 Cloudy 53 11.7 38 3.3 57 57 Calm 30.14 1021 10 16 0.00 0.00

Powered by AerisWeather